Time,TemperatureF,DewpointF,PressureIn,WindDirection,WindDirectionDegrees,WindSpeedMPH,WindSpeedGustMPH,Humidity,HourlyPrecipIn,Conditions,Clouds,dailyrainin,SoftwareType,DateUTC
2013-09-06 00:00:00,72.2,66.4,30.06,ESE,108,0.0,10.0,82,0.00,,,0.00,VWS V14.01,2013-09-06 05:00:00,
2013-09-06 00:03:00,72.1,66.3,30.05,SE,125,0.0,7.0,82,0.00,,,0.00,VWS V14.01,2013-09-06 05:03:00,
2013-09-06 00:08:00,72.0,66.2,30.05,ESE,106,0.0,7.0,82,0.00,,,0.00,VWS V14.01,2013-09-06 05:08:00,
2013-09-06 00:14:00,71.9,66.1,30.05,ESE,114,0.0,7.0,82,0.00,,,0.00,VWS V14.01,2013-09-06 05:14:00,
2013-09-06 00:19:00,71.9,66.5,30.05,SE,126,0.0,7.0,83,0.00,,,0.00,VWS V14.01,2013-09-06 05:19:00,
2013-09-06 00:24:00,71.8,66.4,30.05,ESE,116,1.0,9.0,83,0.00,,,0.00,VWS V14.01,2013-09-06 05:24:00,
2013-09-06 00:29:00,71.7,66.3,30.05,SE,132,4.0,9.0,83,0.00,,,0.00,VWS V14.01,2013-09-06 05:29:00,
2013-09-06 00:30:00,71.7,66.3,30.05,ESE,118,0.0,9.0,83,0.00,,,0.00,VWS V14.01,2013-09-06 05:30:00,
2013-09-06 00:34:00,71.6,66.2,30.05,ESE,113,3.0,4.0,83,0.00,,,0.00,VWS V14.01,2013-09-06 05:34:00,
2013-09-06 00:39:00,71.6,66.5,30.05,ESE,119,3.0,8.0,84,0.00,,,0.00,VWS V14.01,2013-09-06 05:39:00,
2013-09-06 00:44:00,71.6,66.5,30.05,ESE,120,0.0,8.0,84,0.00,,,0.00,VWS V14.01,2013-09-06 05:44:00,
2013-09-06 00:49:00,71.6,66.5,30.05,ESE,123,3.0,8.0,84,0.00,,,0.00,VWS V14.01,2013-09-06 05:49:00,
2013-09-06 00:54:00,71.6,66.5,30.05,ESE,116,0.0,8.0,84,0.00,,,0.00,VWS V14.01,2013-09-06 05:54:00,
2013-09-06 00:59:00,71.5,66.4,30.05,ESE,107,0.0,8.0,84,0.00,,,0.00,VWS V14.01,2013-09-06 05:59:00,
2013-09-06 01:00:00,71.5,66.4,30.05,ESE,112,0.0,8.0,84,0.00,,,0.00,VWS V14.01,2013-09-06 06:00:00,
2013-09-06 01:04:00,71.5,66.4,30.05,ESE,110,0.0,8.0,84,0.00,,,0.00,VWS V14.01,2013-09-06 06:04:00,
2013-09-06 01:09:00,71.4,66.3,30.05,SE,129,5.0,8.0,84,0.00,,,0.00,VWS V14.01,2013-09-06 06:09:00,
2013-09-06 01:14:00,71.4,66.7,30.05,ESE,111,0.0,8.0,85,0.00,,,0.00,VWS V14.01,2013-09-06 06:14:00,
2013-09-06 01:19:00,71.4,66.7,30.05,East,92,3.0,10.0,85,0.00,,,0.00,VWS V14.01,2013-09-06 06:19:00,
2013-09-06 01:24:00,71.4,66.7,30.04,SE,144,1.0,12.0,85,0.00,,,0.00,VWS V14.01,2013-09-06 06:24:00,
2013-09-06 01:29:00,71.4,66.7,30.05,SSE,148,1.0,12.0,85,0.00,,,0.00,VWS V14.01,2013-09-06 06:29:00,
2013-09-06 01:30:00,71.4,66.7,30.05,ESE,120,3.0,12.0,85,0.00,,,0.00,VWS V14.01,2013-09-06 06:30:00,
2013-09-06 01:34:00,71.4,66.7,30.05,SE,124,1.0,7.0,85,0.00,,,0.00,VWS V14.01,2013-09-06 06:34:00,
2013-09-06 01:39:00,71.4,66.7,30.05,SE,145,0.0,7.0,85,0.00,,,0.00,VWS V14.01,2013-09-06 06:39:00,
2013-09-06 01:44:00,71.3,66.6,30.05,SSE,150,9.0,9.0,85,0.00,,,0.00,VWS V14.01,2013-09-06 06:44:00,
2013-09-06 01:49:00,71.3,66.6,30.04,ESE,117,8.0,13.0,85,0.00,,,0.00,VWS V14.01,2013-09-06 06:49:00,
2013-09-06 01:54:00,71.3,66.9,30.04,ESE,102,5.0,13.0,86,0.00,,,0.00,VWS V14.01,2013-09-06 06:54:00,
2013-09-06 01:59:00,71.3,66.9,30.04,ESE,108,4.0,13.0,86,0.00,,,0.00,VWS V14.01,2013-09-06 06:59:00,
2013-09-06 02:00:00,71.3,66.9,30.04,ESE,117,5.0,13.0,86,0.00,,,0.00,VWS V14.01,2013-09-06 07:00:00,
2013-09-06 02:04:00,71.3,66.9,30.04,ESE,122,11.0,11.0,86,0.00,,,0.00,VWS V14.01,2013-09-06 07:04:00,
2013-09-06 02:10:00,71.4,67.0,30.05,ESE,105,0.0,11.0,86,0.00,,,0.00,VWS V14.01,2013-09-06 07:10:00,
2013-09-06 02:15:00,71.4,67.0,30.05,SE,125,3.0,11.0,86,0.00,,,0.00,VWS V14.01,2013-09-06 07:15:00,
2013-09-06 02:20:00,71.4,67.0,30.05,ESE,105,0.0,11.0,86,0.01,,,0.01,VWS V14.01,2013-09-06 07:20:00,
2013-09-06 02:25:00,71.5,67.1,30.05,SSE,152,0.0,11.0,86,0.01,,,0.01,VWS V14.01,2013-09-06 07:25:00,
2013-09-06 02:30:00,71.4,67.0,30.05,South,171,4.0,11.0,86,0.01,,,0.01,VWS V14.01,2013-09-06 07:30:00,
2013-09-06 02:35:00,71.3,66.9,30.05,SE,136,0.0,7.0,86,0.01,,,0.01,VWS V14.01,2013-09-06 07:35:00,
2013-09-06 02:40:00,71.3,66.9,30.05,SE,139,0.0,8.0,86,0.01,,,0.01,VWS V14.01,2013-09-06 07:40:00,
2013-09-06 02:45:00,71.3,67.2,30.05,East,95,0.0,8.0,87,0.01,,,0.01,VWS V14.01,2013-09-06 07:45:00,
2013-09-06 02:50:00,71.2,67.1,30.05,ESE,110,1.0,8.0,87,0.01,,,0.01,VWS V14.01,2013-09-06 07:50:00,
2013-09-06 02:55:00,71.2,67.1,30.04,ESE,123,0.0,8.0,87,0.01,,,0.01,VWS V14.01,2013-09-06 07:55:00,
2013-09-06 03:00:00,71.2,67.1,30.04,ESE,122,0.0,8.0,87,0.01,,,0.01,VWS V14.01,2013-09-06 08:00:00,
2013-09-06 03:05:00,71.1,67.0,30.04,ESE,120,3.0,7.0,87,0.01,,,0.01,VWS V14.01,2013-09-06 08:05:00,
2013-09-06 03:10:00,71.1,67.0,30.04,ESE,119,0.0,7.0,87,0.01,,,0.01,VWS V14.01,2013-09-06 08:10:00,
2013-09-06 03:15:00,71.1,67.0,30.04,SE,125,0.0,7.0,87,0.01,,,0.01,VWS V14.01,2013-09-06 08:15:00,
2013-09-06 03:20:00,71.1,67.0,30.04,SE,127,0.0,7.0,87,0.01,,,0.01,VWS V14.01,2013-09-06 08:20:00,
2013-09-06 03:25:00,71.1,67.0,30.04,ESE,112,2.0,10.0,87,0.01,,,0.01,VWS V14.01,2013-09-06 08:25:00,
2013-09-06 03:30:00,71.1,67.0,30.04,SE,133,0.0,10.0,87,0.01,,,0.01,VWS V14.01,2013-09-06 08:30:00,
2013-09-06 03:35:00,71.1,67.0,30.04,SE,124,4.0,10.0,87,0.00,,,0.01,VWS V14.01,2013-09-06 08:35:00,
2013-09-06 03:40:00,71.1,67.0,30.04,SE,130,6.0,10.0,87,0.00,,,0.01,VWS V14.01,2013-09-06 08:40:00,
2013-09-06 03:45:00,71.1,67.0,30.04,SE,124,0.0,10.0,87,0.00,,,0.01,VWS V14.01,2013-09-06 08:45:00,
2013-09-06 03:50:00,71.1,67.0,30.04,SE,125,0.0,10.0,87,0.00,,,0.01,VWS V14.01,2013-09-06 08:50:00,
2013-09-06 03:55:00,71.1,67.0,30.04,South,186,0.0,10.0,87,0.00,,,0.01,VWS V14.01,2013-09-06 08:55:00,
2013-09-06 04:00:00,71.1,67.4,30.04,SE,143,0.0,10.0,88,0.00,,,0.01,VWS V14.01,2013-09-06 09:00:00,
2013-09-06 04:05:00,71.1,67.4,30.04,SE,128,5.0,9.0,88,0.00,,,0.01,VWS V14.01,2013-09-06 09:05:00,
2013-09-06 04:10:00,71.1,67.4,30.04,ESE,108,3.0,11.0,88,0.00,,,0.01,VWS V14.01,2013-09-06 09:10:00,
2013-09-06 04:15:00,71.1,67.4,30.04,ESE,113,0.0,11.0,88,0.00,,,0.01,VWS V14.01,2013-09-06 09:15:00,
2013-09-06 04:20:00,71.2,67.5,30.04,SE,131,5.0,11.0,88,0.00,,,0.01,VWS V14.01,2013-09-06 09:20:00,
2013-09-06 04:25:00,71.1,67.4,30.04,SE,146,0.0,11.0,88,0.00,,,0.01,VWS V14.01,2013-09-06 09:25:00,
2013-09-06 04:30:00,71.1,67.4,30.04,SE,124,5.0,11.0,88,0.00,,,0.01,VWS V14.01,2013-09-06 09:30:00,
2013-09-06 04:31:00,71.1,67.4,30.04,SE,124,0.0,11.0,88,0.00,,,0.01,VWS V14.01,2013-09-06 09:31:00,
2013-09-06 04:36:00,71.1,67.4,30.04,East,88,0.0,7.0,88,0.00,,,0.01,VWS V14.01,2013-09-06 09:36:00,
2013-09-06 04:41:00,71.1,67.4,30.03,SE,135,0.0,11.0,88,0.00,,,0.01,VWS V14.01,2013-09-06 09:41:00,
2013-09-06 04:46:00,71.1,67.4,30.03,East,87,5.0,11.0,88,0.00,,,0.01,VWS V14.01,2013-09-06 09:46:00,
2013-09-06 04:51:00,71.1,67.4,30.04,SE,138,1.0,11.0,88,0.00,,,0.01,VWS V14.01,2013-09-06 09:51:00,
2013-09-06 04:56:00,71.1,67.4,30.03,ESE,114,1.0,11.0,88,0.00,,,0.01,VWS V14.01,2013-09-06 09:56:00,
2013-09-06 05:00:00,71.1,67.4,30.03,South,185,2.0,11.0,88,0.00,,,0.01,VWS V14.01,2013-09-06 10:00:00,
2013-09-06 05:01:00,71.1,67.4,30.03,SSW,198,4.0,11.0,88,0.00,,,0.01,VWS V14.01,2013-09-06 10:01:00,
2013-09-06 05:06:00,71.1,67.4,30.03,SE,136,4.0,7.0,88,0.00,,,0.01,VWS V14.01,2013-09-06 10:06:00,
2013-09-06 05:11:00,71.1,67.4,30.03,SE,140,6.0,7.0,88,0.00,,,0.01,VWS V14.01,2013-09-06 10:11:00,
2013-09-06 05:16:00,71.1,67.0,30.03,SE,132,4.0,7.0,87,0.00,,,0.01,VWS V14.01,2013-09-06 10:16:00,
2013-09-06 05:21:00,71.1,67.0,30.03,SE,131,2.0,7.0,87,0.00,,,0.01,VWS V14.01,2013-09-06 10:21:00,
2013-09-06 05:26:00,71.0,66.9,30.03,SE,131,4.0,9.0,87,0.00,,,0.01,VWS V14.01,2013-09-06 10:26:00,
2013-09-06 05:30:00,71.0,66.9,30.03,East,91,2.0,11.0,87,0.00,,,0.01,VWS V14.01,2013-09-06 10:30:00,
2013-09-06 05:31:00,71.0,66.9,30.03,East,92,0.0,2.0,87,0.00,,,0.01,VWS V14.01,2013-09-06 10:31:00,
2013-09-06 05:36:00,71.0,66.9,30.03,ESE,121,10.0,15.0,87,0.00,,,0.01,VWS V14.01,2013-09-06 10:36:00,
2013-09-06 05:41:00,71.0,66.9,30.03,ESE,107,3.0,15.0,87,0.00,,,0.01,VWS V14.01,2013-09-06 10:41:00,
2013-09-06 05:46:00,71.0,66.9,30.02,ESE,122,0.0,15.0,87,0.00,,,0.01,VWS V14.01,2013-09-06 10:46:00,
2013-09-06 05:51:00,71.0,66.9,30.02,SSE,150,1.0,15.0,87,0.00,,,0.01,VWS V14.01,2013-09-06 10:51:00,
2013-09-06 05:56:00,70.9,66.8,30.02,ESE,118,3.0,15.0,87,0.00,,,0.01,VWS V14.01,2013-09-06 10:56:00,
2013-09-06 06:00:00,70.8,66.7,30.02,ESE,123,0.0,15.0,87,0.00,,,0.01,VWS V14.01,2013-09-06 11:00:00,
2013-09-06 06:01:00,70.8,66.7,30.02,SE,125,5.0,5.0,87,0.00,,,0.01,VWS V14.01,2013-09-06 11:01:00,
2013-09-06 06:06:00,70.8,66.7,30.02,ESE,110,1.0,10.0,87,0.00,,,0.01,VWS V14.01,2013-09-06 11:06:00,
2013-09-06 06:11:00,70.7,66.7,30.02,ESE,117,4.0,10.0,87,0.00,,,0.01,VWS V14.01,2013-09-06 11:11:00,
2013-09-06 06:16:00,70.7,66.7,30.02,ESE,110,0.0,10.0,87,0.00,,,0.01,VWS V14.01,2013-09-06 11:16:00,
2013-09-06 06:21:00,70.6,66.6,30.02,ESE,122,2.0,10.0,87,0.00,,,0.01,VWS V14.01,2013-09-06 11:21:00,
2013-09-06 06:26:00,70.5,66.4,30.02,SE,140,4.0,10.0,87,0.00,,,0.01,VWS V14.01,2013-09-06 11:26:00,
2013-09-06 06:30:00,70.5,66.4,30.02,SE,139,4.0,14.0,87,0.00,,,0.01,VWS V14.01,2013-09-06 11:30:00,
2013-09-06 06:31:00,70.5,66.4,30.02,ESE,117,4.0,5.0,87,0.00,,,0.01,VWS V14.01,2013-09-06 11:31:00,
2013-09-06 06:36:00,70.4,66.3,30.02,ESE,112,6.0,6.0,87,0.00,,,0.01,VWS V14.01,2013-09-06 11:36:00,
2013-09-06 06:41:00,70.4,66.3,30.02,ESE,117,6.0,10.0,87,0.00,,,0.01,VWS V14.01,2013-09-06 11:41:00,
2013-09-06 06:47:00,70.3,66.2,30.02,ESE,119,2.0,11.0,87,0.00,,,0.01,VWS V14.01,2013-09-06 11:47:00,
2013-09-06 06:52:00,70.3,66.6,30.02,SSE,160,0.0,11.0,88,0.00,,,0.01,VWS V14.01,2013-09-06 11:52:00,
2013-09-06 06:57:00,70.2,66.5,30.02,SE,129,2.0,11.0,88,0.00,,,0.01,VWS V14.01,2013-09-06 11:57:00,
2013-09-06 07:00:00,70.2,66.5,30.02,SE,124,0.0,11.0,88,0.00,,,0.01,VWS V14.01,2013-09-06 12:00:00,
2013-09-06 07:02:00,70.2,66.5,30.02,SSE,152,0.0,7.0,88,0.01,,,0.02,VWS V14.01,2013-09-06 12:02:00,
2013-09-06 07:07:00,70.2,66.5,30.02,East,91,5.0,11.0,88,0.01,,,0.02,VWS V14.01,2013-09-06 12:07:00,
2013-09-06 07:12:00,70.2,66.5,30.02,ESE,119,4.0,11.0,88,0.01,,,0.02,VWS V14.01,2013-09-06 12:12:00,
2013-09-06 07:17:00,70.2,66.5,30.02,SE,126,1.0,11.0,88,0.01,,,0.02,VWS V14.01,2013-09-06 12:17:00,
2013-09-06 07:22:00,70.2,66.5,30.01,SE,144,3.0,11.0,88,0.01,,,0.02,VWS V14.01,2013-09-06 12:22:00,
2013-09-06 07:27:00,70.2,66.5,30.00,SSE,152,2.0,11.0,88,0.01,,,0.02,VWS V14.01,2013-09-06 12:27:00,
2013-09-06 07:30:00,70.2,66.5,30.00,SE,133,0.0,12.0,88,0.01,,,0.02,VWS V14.01,2013-09-06 12:30:00,
2013-09-06 07:32:00,70.2,66.5,30.00,ESE,118,4.0,7.0,88,0.01,,,0.02,VWS V14.01,2013-09-06 12:32:00,
2013-09-06 07:37:00,70.3,66.6,30.00,East,90,0.0,10.0,88,0.01,,,0.02,VWS V14.01,2013-09-06 12:37:00,
2013-09-06 07:42:00,70.3,66.6,30.00,ESE,114,3.0,11.0,88,0.01,,,0.02,VWS V14.01,2013-09-06 12:42:00,
2013-09-06 07:47:00,70.3,66.6,30.00,South,185,0.0,11.0,88,0.01,,,0.02,VWS V14.01,2013-09-06 12:47:00,
2013-09-06 07:52:00,70.4,66.7,30.00,SSE,154,1.0,11.0,88,0.01,,,0.02,VWS V14.01,2013-09-06 12:52:00,
2013-09-06 07:57:00,70.5,66.8,30.00,SE,146,3.0,11.0,88,0.01,,,0.02,VWS V14.01,2013-09-06 12:57:00,
2013-09-06 08:00:00,70.6,66.9,30.00,South,178,10.0,11.0,88,0.01,,,0.02,VWS V14.01,2013-09-06 13:00:00,
2013-09-06 08:02:00,70.6,66.9,30.00,South,181,4.0,10.0,88,0.01,,,0.02,VWS V14.01,2013-09-06 13:02:00,
2013-09-06 08:07:00,70.8,67.1,30.00,ESE,112,4.0,10.0,88,0.01,,,0.02,VWS V14.01,2013-09-06 13:07:00,
2013-09-06 08:12:00,71.0,67.3,30.00,SE,140,2.0,10.0,88,0.01,,,0.02,VWS V14.01,2013-09-06 13:12:00,
2013-09-06 08:17:00,71.1,67.4,30.00,SSE,153,4.0,10.0,88,0.01,,,0.02,VWS V14.01,2013-09-06 13:17:00,
2013-09-06 08:23:00,71.2,67.1,29.99,SSE,162,0.0,10.0,87,0.01,,,0.02,VWS V14.01,2013-09-06 13:23:00,
2013-09-06 08:28:00,71.5,67.4,29.99,SE,140,5.0,10.0,87,0.01,,,0.02,VWS V14.01,2013-09-06 13:28:00,
2013-09-06 08:30:00,71.7,67.6,29.99,SE,129,1.0,10.0,87,0.01,,,0.02,VWS V14.01,2013-09-06 13:30:00,
2013-09-06 08:33:00,71.7,67.6,29.99,SSE,168,0.0,7.0,87,0.00,,,0.02,VWS V14.01,2013-09-06 13:33:00,
2013-09-06 08:38:00,72.2,67.8,29.99,East,100,10.0,10.0,86,0.00,,,0.02,VWS V14.01,2013-09-06 13:38:00,
2013-09-06 08:43:00,72.8,68.0,29.99,SE,133,5.0,17.0,85,0.00,,,0.02,VWS V14.01,2013-09-06 13:43:00,
2013-09-06 08:48:00,73.4,68.3,29.99,SSE,152,7.0,17.0,84,0.00,,,0.02,VWS V14.01,2013-09-06 13:48:00,
2013-09-06 08:53:00,73.6,67.8,29.99,SSE,149,3.0,17.0,82,0.00,,,0.02,VWS V14.01,2013-09-06 13:53:00,
2013-09-06 08:58:00,73.5,67.7,29.99,SSE,163,11.0,17.0,82,0.00,,,0.02,VWS V14.01,2013-09-06 13:58:00,
2013-09-06 09:00:00,73.5,67.7,29.99,East,92,1.0,17.0,82,0.00,,,0.02,VWS V14.01,2013-09-06 14:00:00,
2013-09-06 09:03:00,73.5,67.7,29.99,South,176,6.0,8.0,82,0.00,,,0.02,VWS V14.01,2013-09-06 14:03:00,
2013-09-06 09:08:00,73.7,67.9,29.99,WSW,245,6.0,9.0,82,0.00,,,0.02,VWS V14.01,2013-09-06 14:08:00,
2013-09-06 09:13:00,74.3,68.1,29.98,SE,143,4.0,14.0,81,0.00,,,0.02,VWS V14.01,2013-09-06 14:13:00,
2013-09-06 09:18:00,74.5,67.9,29.98,SSE,166,6.0,14.0,80,0.00,,,0.02,VWS V14.01,2013-09-06 14:18:00,
2013-09-06 09:23:00,74.5,67.9,29.98,ESE,119,5.0,14.0,80,0.00,,,0.02,VWS V14.01,2013-09-06 14:23:00,
2013-09-06 09:28:00,74.5,67.9,29.98,SSE,155,5.0,14.0,80,0.00,,,0.02,VWS V14.01,2013-09-06 14:28:00,
2013-09-06 09:30:00,74.5,67.9,29.98,SSE,148,5.0,14.0,80,0.00,,,0.02,VWS V14.01,2013-09-06 14:30:00,
2013-09-06 09:33:00,74.6,68.0,29.98,SE,133,0.0,8.0,80,0.00,,,0.02,VWS V14.01,2013-09-06 14:33:00,
2013-09-06 09:38:00,75.1,68.2,29.98,SE,133,4.0,11.0,79,0.00,,,0.02,VWS V14.01,2013-09-06 14:38:00,
2013-09-06 09:43:00,75.9,68.9,29.98,SE,131,0.0,11.0,79,0.00,,,0.02,VWS V14.01,2013-09-06 14:43:00,
2013-09-06 09:48:00,76.4,68.7,29.98,ESE,117,4.0,14.0,77,0.00,,,0.02,VWS V14.01,2013-09-06 14:48:00,
2013-09-06 09:53:00,76.4,68.3,29.97,ESE,105,2.0,14.0,76,0.00,,,0.02,VWS V14.01,2013-09-06 14:53:00,
2013-09-06 09:58:00,76.4,67.9,29.97,SE,125,3.0,14.0,75,0.00,,,0.02,VWS V14.01,2013-09-06 14:58:00,
2013-09-06 10:00:00,76.4,68.3,29.97,SE,133,1.0,14.0,76,0.00,,,0.02,VWS V14.01,2013-09-06 15:00:00,
2013-09-06 10:03:00,76.5,68.4,29.97,South,174,5.0,13.0,76,0.00,,,0.02,VWS V14.01,2013-09-06 15:03:00,
2013-09-06 10:08:00,76.7,68.6,29.97,SSE,147,3.0,13.0,76,0.00,,,0.02,VWS V14.01,2013-09-06 15:08:00,
2013-09-06 10:13:00,77.0,68.9,29.97,ESE,106,7.0,13.0,76,0.00,,,0.02,VWS V14.01,2013-09-06 15:13:00,
2013-09-06 10:18:00,77.1,68.6,29.97,SSE,161,5.0,13.0,75,0.00,,,0.02,VWS V14.01,2013-09-06 15:18:00,
2013-09-06 10:23:00,77.3,68.4,29.97,ESE,111,3.0,13.0,74,0.00,,,0.02,VWS V14.01,2013-09-06 15:23:00,
2013-09-06 10:28:00,77.4,67.7,29.97,SE,137,0.0,13.0,72,0.00,,,0.02,VWS V14.01,2013-09-06 15:28:00,
2013-09-06 10:30:00,77.5,67.8,29.97,South,177,2.0,18.0,72,0.00,,,0.02,VWS V14.01,2013-09-06 15:30:00,
2013-09-06 10:33:00,77.6,68.3,29.97,ESE,121,10.0,10.0,73,0.00,,,0.02,VWS V14.01,2013-09-06 15:33:00,
2013-09-06 10:38:00,77.8,68.1,29.96,SSE,162,6.0,13.0,72,0.00,,,0.02,VWS V14.01,2013-09-06 15:38:00,
2013-09-06 10:44:00,77.8,68.1,29.96,SSE,168,3.0,13.0,72,0.00,,,0.02,VWS V14.01,2013-09-06 15:44:00,
2013-09-06 10:49:00,77.9,67.8,29.97,SE,146,3.0,17.0,71,0.00,,,0.02,VWS V14.01,2013-09-06 15:49:00,
2013-09-06 10:54:00,78.1,67.9,29.96,SSE,166,5.0,17.0,71,0.00,,,0.02,VWS V14.01,2013-09-06 15:54:00,
2013-09-06 10:59:00,78.8,69.0,29.96,South,187,14.0,17.0,72,0.00,,,0.02,VWS V14.01,2013-09-06 15:59:00,
2013-09-06 11:00:00,79.1,68.9,29.96,South,184,6.0,17.0,71,0.00,,,0.02,VWS V14.01,2013-09-06 16:00:00,
2013-09-06 11:04:00,79.4,68.8,29.96,SSE,148,5.0,12.0,70,0.00,,,0.02,VWS V14.01,2013-09-06 16:04:00,
2013-09-06 11:09:00,80.0,68.9,29.96,SSE,168,4.0,13.0,69,0.00,,,0.02,VWS V14.01,2013-09-06 16:09:00,
2013-09-06 11:14:00,80.3,68.8,29.96,South,179,12.0,13.0,68,0.00,,,0.02,VWS V14.01,2013-09-06 16:14:00,
2013-09-06 11:19:00,80.7,68.7,29.96,SSE,166,6.0,13.0,67,0.00,,,0.02,VWS V14.01,2013-09-06 16:19:00,
2013-09-06 11:24:00,81.1,68.7,29.95,South,175,7.0,15.0,66,0.00,,,0.02,VWS V14.01,2013-09-06 16:24:00,
2013-09-06 11:29:00,81.5,68.6,29.95,SE,126,5.0,19.0,65,0.00,,,0.02,VWS V14.01,2013-09-06 16:29:00,
2013-09-06 11:30:00,81.7,68.8,29.95,SE,134,2.0,19.0,65,0.00,,,0.02,VWS V14.01,2013-09-06 16:30:00,
2013-09-06 11:34:00,81.9,69.0,29.95,SSE,150,1.0,17.0,65,0.00,,,0.02,VWS V14.01,2013-09-06 16:34:00,
2013-09-06 11:39:00,82.1,69.6,29.95,SSE,164,6.0,17.0,66,0.00,,,0.02,VWS V14.01,2013-09-06 16:39:00,
2013-09-06 11:44:00,82.4,69.5,29.94,SE,137,0.0,17.0,65,0.00,,,0.02,VWS V14.01,2013-09-06 16:44:00,
2013-09-06 11:49:00,82.6,70.1,29.94,ESE,111,2.0,17.0,66,0.00,,,0.02,VWS V14.01,2013-09-06 16:49:00,
2013-09-06 11:54:00,82.8,69.8,29.94,SSW,196,9.0,17.0,65,0.00,,,0.02,VWS V14.01,2013-09-06 16:54:00,
2013-09-06 11:59:00,82.9,69.5,29.94,SSE,164,0.0,17.0,64,0.00,,,0.02,VWS V14.01,2013-09-06 16:59:00,
2013-09-06 12:00:00,83.0,69.6,29.94,SSE,148,0.0,17.0,64,0.00,,,0.02,VWS V14.01,2013-09-06 17:00:00,
2013-09-06 12:04:00,83.1,69.2,29.94,South,177,7.0,14.0,63,0.00,,,0.02,VWS V14.01,2013-09-06 17:04:00,
2013-09-06 12:09:00,83.4,69.9,29.94,ESE,113,5.0,14.0,64,0.00,,,0.02,VWS V14.01,2013-09-06 17:09:00,
2013-09-06 12:14:00,83.7,70.2,29.93,SE,127,0.0,16.0,64,0.00,,,0.02,VWS V14.01,2013-09-06 17:14:00,
2013-09-06 12:19:00,84.0,70.1,29.93,SSE,152,9.0,16.0,63,0.00,,,0.02,VWS V14.01,2013-09-06 17:19:00,
2013-09-06 12:24:00,84.1,70.2,29.92,SE,131,1.0,16.0,63,0.00,,,0.02,VWS V14.01,2013-09-06 17:24:00,
2013-09-06 12:29:00,84.4,70.0,29.92,SSE,158,9.0,16.0,62,0.00,,,0.02,VWS V14.01,2013-09-06 17:29:00,
2013-09-06 12:30:00,84.5,70.1,29.92,NE,53,0.0,16.0,62,0.00,,,0.02,VWS V14.01,2013-09-06 17:30:00,
2013-09-06 12:34:00,84.6,70.2,29.92,SSE,149,5.0,15.0,62,0.00,,,0.02,VWS V14.01,2013-09-06 17:34:00,
2013-09-06 12:39:00,84.9,69.5,29.92,SSE,166,4.0,19.0,60,0.00,,,0.02,VWS V14.01,2013-09-06 17:39:00,
2013-09-06 12:44:00,85.1,69.2,29.92,SSE,163,0.0,19.0,59,0.00,,,0.02,VWS V14.01,2013-09-06 17:44:00,
2013-09-06 12:49:00,85.3,68.9,29.92,SSE,158,9.0,19.0,58,0.00,,,0.02,VWS V14.01,2013-09-06 17:49:00,
2013-09-06 12:54:00,85.5,69.1,29.91,South,179,12.0,19.0,58,0.00,,,0.02,VWS V14.01,2013-09-06 17:54:00,
2013-09-06 13:00:00,85.8,68.8,29.91,South,179,6.0,19.0,57,0.00,,,0.02,VWS V14.01,2013-09-06 18:00:00,
2013-09-06 13:05:00,86.1,70.1,29.91,South,174,1.0,16.0,59,0.00,,,0.02,VWS V14.01,2013-09-06 18:05:00,
2013-09-06 13:10:00,86.3,69.3,29.91,SE,135,12.0,16.0,57,0.00,,,0.02,VWS V14.01,2013-09-06 18:10:00,
2013-09-06 13:15:00,86.5,69.0,29.91,SSE,164,6.0,18.0,56,0.00,,,0.02,VWS V14.01,2013-09-06 18:15:00,
2013-09-06 13:20:00,86.5,69.5,29.90,SE,146,11.0,18.0,57,0.00,,,0.02,VWS V14.01,2013-09-06 18:20:00,
2013-09-06 13:25:00,86.6,68.5,29.90,SE,144,7.0,18.0,55,0.00,,,0.02,VWS V14.01,2013-09-06 18:25:00,
2013-09-06 13:30:00,86.6,68.5,29.90,SSE,152,3.0,23.0,55,0.00,,,0.02,VWS V14.01,2013-09-06 18:30:00,
2013-09-06 13:35:00,86.8,69.2,29.90,South,179,13.0,15.0,56,0.00,,,0.02,VWS V14.01,2013-09-06 18:35:00,
2013-09-06 13:40:00,87.0,68.9,29.89,SSE,152,5.0,17.0,55,0.00,,,0.02,VWS V14.01,2013-09-06 18:40:00,
2013-09-06 13:45:00,87.3,69.7,29.89,SSE,151,6.0,17.0,56,0.00,,,0.02,VWS V14.01,2013-09-06 18:45:00,
2013-09-06 13:50:00,87.4,69.3,29.89,ESE,113,5.0,17.0,55,0.00,,,0.02,VWS V14.01,2013-09-06 18:50:00,
2013-09-06 13:55:00,87.6,68.9,29.89,SSE,156,4.0,17.0,54,0.00,,,0.02,VWS V14.01,2013-09-06 18:55:00,
2013-09-06 14:00:00,87.7,68.5,29.89,SSE,151,6.0,18.0,53,0.00,,,0.02,VWS V14.01,2013-09-06 19:00:00,
2013-09-06 14:05:00,87.9,69.2,29.89,South,177,6.0,12.0,54,0.00,,,0.02,VWS V14.01,2013-09-06 19:05:00,
2013-09-06 14:10:00,88.1,68.8,29.88,South,173,3.0,16.0,53,0.00,,,0.02,VWS V14.01,2013-09-06 19:10:00,
2013-09-06 14:15:00,88.3,68.5,29.88,SE,129,6.0,19.0,52,0.00,,,0.02,VWS V14.01,2013-09-06 19:15:00,
2013-09-06 14:20:00,88.4,68.6,29.87,South,171,9.0,19.0,52,0.00,,,0.02,VWS V14.01,2013-09-06 19:20:00,
2013-09-06 14:25:00,88.5,69.2,29.87,SSE,168,16.0,20.0,53,0.00,,,0.02,VWS V14.01,2013-09-06 19:25:00,
2013-09-06 14:30:00,88.8,68.4,29.87,SSE,154,13.0,20.0,51,0.00,,,0.02,VWS V14.01,2013-09-06 19:30:00,
2013-09-06 14:35:00,88.9,69.0,29.87,SSE,156,6.0,12.0,52,0.00,,,0.02,VWS V14.01,2013-09-06 19:35:00,
2013-09-06 14:40:00,89.0,68.0,29.87,SSE,166,9.0,16.0,50,0.00,,,0.02,VWS V14.01,2013-09-06 19:40:00,
2013-09-06 14:45:00,89.2,68.7,29.87,SSE,163,9.0,16.0,51,0.00,,,0.02,VWS V14.01,2013-09-06 19:45:00,
2013-09-06 14:50:00,89.3,68.8,29.87,South,175,13.0,19.0,51,0.00,,,0.02,VWS V14.01,2013-09-06 19:50:00,
2013-09-06 14:55:00,89.4,68.3,29.87,SE,143,5.0,19.0,50,0.00,,,0.02,VWS V14.01,2013-09-06 19:55:00,
2013-09-06 15:00:00,89.5,68.4,29.87,SE,135,11.0,19.0,50,0.00,,,0.02,VWS V14.01,2013-09-06 20:00:00,
2013-09-06 15:05:00,89.5,69.0,29.87,SSE,148,4.0,20.0,51,0.00,,,0.02,VWS V14.01,2013-09-06 20:05:00,
2013-09-06 15:10:00,89.7,69.2,29.86,ESE,114,3.0,20.0,51,0.00,,,0.02,VWS V14.01,2013-09-06 20:10:00,
2013-09-06 15:15:00,89.8,69.3,29.86,South,177,4.0,20.0,51,0.00,,,0.02,VWS V14.01,2013-09-06 20:15:00,
2013-09-06 15:21:00,90.0,69.5,29.86,SSE,155,6.0,20.0,51,0.00,,,0.02,VWS V14.01,2013-09-06 20:21:00,
2013-09-06 15:26:00,90.2,70.2,29.86,SSE,157,0.0,20.0,52,0.00,,,0.02,VWS V14.01,2013-09-06 20:26:00,
2013-09-06 15:30:00,90.2,69.6,29.86,South,178,6.0,20.0,51,0.00,,,0.02,VWS V14.01,2013-09-06 20:30:00,
2013-09-06 15:31:00,90.2,69.6,29.86,South,176,7.0,20.0,51,0.00,,,0.02,VWS V14.01,2013-09-06 20:31:00,
2013-09-06 15:36:00,90.1,70.1,29.86,South,184,4.0,11.0,52,0.00,,,0.02,VWS V14.01,2013-09-06 20:36:00,
2013-09-06 15:41:00,90.2,70.2,29.85,South,169,4.0,11.0,52,0.00,,,0.02,VWS V14.01,2013-09-06 20:41:00,
2013-09-06 15:46:00,90.3,70.3,29.85,SE,143,2.0,13.0,52,0.00,,,0.02,VWS V14.01,2013-09-06 20:46:00,
2013-09-06 15:51:00,90.4,69.2,29.85,SE,146,5.0,18.0,50,0.00,,,0.02,VWS V14.01,2013-09-06 20:51:00,
2013-09-06 15:56:00,90.4,69.8,29.85,SE,139,8.0,18.0,51,0.00,,,0.02,VWS V14.01,2013-09-06 20:56:00,
2013-09-06 16:00:00,90.4,69.8,29.84,SE,139,0.0,18.0,51,0.00,,,0.02,VWS V14.01,2013-09-06 21:00:00,
2013-09-06 16:01:00,90.4,69.8,29.84,SE,139,4.0,18.0,51,0.00,,,0.02,VWS V14.01,2013-09-06 21:01:00,
2013-09-06 16:06:00,90.3,69.7,29.84,South,184,4.0,12.0,51,0.00,,,0.02,VWS V14.01,2013-09-06 21:06:00,
2013-09-06 16:11:00,90.2,69.6,29.84,SE,133,4.0,13.0,51,0.00,,,0.02,VWS V14.01,2013-09-06 21:11:00,
2013-09-06 16:16:00,90.2,70.2,29.84,SE,127,0.0,17.0,52,0.00,,,0.02,VWS V14.01,2013-09-06 21:16:00,
2013-09-06 16:21:00,90.2,69.6,29.84,SSE,149,0.0,17.0,51,0.00,,,0.02,VWS V14.01,2013-09-06 21:21:00,
2013-09-06 16:26:00,90.2,70.2,29.83,East,94,4.0,17.0,52,0.00,,,0.02,VWS V14.01,2013-09-06 21:26:00,
2013-09-06 16:30:00,90.0,70.0,29.84,SE,125,3.0,17.0,52,0.00,,,0.02,VWS V14.01,2013-09-06 21:30:00,
2013-09-06 16:31:00,90.1,70.7,29.84,SE,144,5.0,5.0,53,0.00,,,0.02,VWS V14.01,2013-09-06 21:31:00,
2013-09-06 16:36:00,90.1,70.7,29.83,SE,143,3.0,11.0,53,0.00,,,0.02,VWS V14.01,2013-09-06 21:36:00,
2013-09-06 16:41:00,90.1,70.1,29.83,SSE,152,9.0,12.0,52,0.00,,,0.02,VWS V14.01,2013-09-06 21:41:00,
2013-09-06 16:46:00,90.1,70.7,29.83,SSE,154,4.0,12.0,53,0.00,,,0.02,VWS V14.01,2013-09-06 21:46:00,
2013-09-06 16:51:00,90.0,70.0,29.83,SE,131,0.0,17.0,52,0.00,,,0.02,VWS V14.01,2013-09-06 21:51:00,
2013-09-06 16:56:00,89.9,70.5,29.83,SSE,155,9.0,17.0,53,0.00,,,0.02,VWS V14.01,2013-09-06 21:56:00,
2013-09-06 17:00:00,89.5,70.1,29.83,SSE,157,5.0,17.0,53,0.00,,,0.02,VWS V14.01,2013-09-06 22:00:00,
2013-09-06 17:01:00,89.5,70.1,29.83,ESE,104,4.0,5.0,53,0.00,,,0.02,VWS V14.01,2013-09-06 22:01:00,
2013-09-06 17:06:00,89.2,70.4,29.83,ESE,122,4.0,13.0,54,0.00,,,0.02,VWS V14.01,2013-09-06 22:06:00,
2013-09-06 17:11:00,89.0,70.2,29.83,East,92,3.0,15.0,54,0.00,,,0.02,VWS V14.01,2013-09-06 22:11:00,
2013-09-06 17:16:00,88.8,70.6,29.82,South,191,4.0,15.0,55,0.00,,,0.02,VWS V14.01,2013-09-06 22:16:00,
2013-09-06 17:21:00,88.6,70.9,29.82,South,176,6.0,15.0,56,0.00,,,0.02,VWS V14.01,2013-09-06 22:21:00,
2013-09-06 17:26:00,88.4,70.7,29.83,SSE,162,1.0,15.0,56,0.00,,,0.02,VWS V14.01,2013-09-06 22:26:00,
2013-09-06 17:30:00,88.2,70.5,29.83,South,172,3.0,15.0,56,0.00,,,0.02,VWS V14.01,2013-09-06 22:30:00,
2013-09-06 17:31:00,88.2,70.5,29.83,SSE,163,1.0,3.0,56,0.00,,,0.02,VWS V14.01,2013-09-06 22:31:00,
2013-09-06 17:37:00,88.1,70.4,29.83,SE,133,1.0,15.0,56,0.00,,,0.02,VWS V14.01,2013-09-06 22:37:00,
2013-09-06 17:42:00,88.0,70.9,29.83,ESE,109,3.0,15.0,57,0.00,,,0.02,VWS V14.01,2013-09-06 22:42:00,
2013-09-06 17:47:00,87.7,70.6,29.82,South,187,4.0,15.0,57,0.00,,,0.02,VWS V14.01,2013-09-06 22:47:00,
2013-09-06 17:52:00,87.5,70.4,29.82,SSE,154,0.0,15.0,57,0.00,,,0.02,VWS V14.01,2013-09-06 22:52:00,
2013-09-06 17:57:00,87.5,70.9,29.83,SE,130,4.0,15.0,58,0.00,,,0.02,VWS V14.01,2013-09-06 22:57:00,
2013-09-06 18:00:00,87.5,70.9,29.82,SE,135,6.0,17.0,58,0.00,,,0.02,VWS V14.01,2013-09-06 23:00:00,
2013-09-06 18:02:00,87.5,70.9,29.82,SSE,161,7.0,7.0,58,0.00,,,0.02,VWS V14.01,2013-09-06 23:02:00,
2013-09-06 18:07:00,87.4,71.3,29.82,ESE,102,5.0,14.0,59,0.00,,,0.02,VWS V14.01,2013-09-06 23:07:00,
2013-09-06 18:12:00,87.3,71.2,29.82,SE,135,2.0,14.0,59,0.00,,,0.02,VWS V14.01,2013-09-06 23:12:00,
2013-09-06 18:17:00,87.2,70.6,29.82,South,173,0.0,14.0,58,0.00,,,0.02,VWS V14.01,2013-09-06 23:17:00,
2013-09-06 18:22:00,87.0,71.4,29.82,SE,131,3.0,14.0,60,0.00,,,0.02,VWS V14.01,2013-09-06 23:22:00,
2013-09-06 18:27:00,86.9,70.9,29.82,SSE,164,3.0,14.0,59,0.00,,,0.02,VWS V14.01,2013-09-06 23:27:00,
2013-09-06 18:30:00,86.8,70.8,29.82,SE,134,1.0,14.0,59,0.00,,,0.02,VWS V14.01,2013-09-06 23:30:00,
2013-09-06 18:32:00,86.7,70.7,29.82,ESE,121,11.0,11.0,59,0.00,,,0.02,VWS V14.01,2013-09-06 23:32:00,
2013-09-06 18:37:00,86.5,70.5,29.82,ESE,116,5.0,14.0,59,0.00,,,0.02,VWS V14.01,2013-09-06 23:37:00,
2013-09-06 18:42:00,86.2,70.7,29.82,SE,138,4.0,14.0,60,0.00,,,0.02,VWS V14.01,2013-09-06 23:42:00,
2013-09-06 18:47:00,85.8,70.3,29.81,SE,143,4.0,14.0,60,0.00,,,0.02,VWS V14.01,2013-09-06 23:47:00,
2013-09-06 18:52:00,85.6,70.6,29.81,ESE,117,3.0,14.0,61,0.00,,,0.02,VWS V14.01,2013-09-06 23:52:00,
2013-09-06 18:57:00,85.3,70.3,29.81,ESE,110,2.0,14.0,61,0.00,,,0.02,VWS V14.01,2013-09-06 23:57:00,
2013-09-06 19:00:00,85.0,70.1,29.81,SE,126,1.0,14.0,61,0.00,,,0.02,VWS V14.01,2013-09-07 00:00:00,
2013-09-06 19:02:00,84.9,70.0,29.81,SE,133,6.0,6.0,61,0.00,,,0.02,VWS V14.01,2013-09-07 00:02:00,
2013-09-06 19:07:00,84.6,70.2,29.81,SE,129,3.0,6.0,62,0.00,,,0.02,VWS V14.01,2013-09-07 00:07:00,
2013-09-06 19:12:00,84.3,70.3,29.81,SE,130,0.0,6.0,63,0.00,,,0.02,VWS V14.01,2013-09-07 00:12:00,
2013-09-06 19:17:00,83.9,70.0,29.82,SE,129,0.0,6.0,63,0.00,,,0.02,VWS V14.01,2013-09-07 00:17:00,
2013-09-06 19:22:00,83.6,70.1,29.81,SE,131,0.0,7.0,64,0.00,,,0.02,VWS V14.01,2013-09-07 00:22:00,
2013-09-06 19:27:00,83.2,69.8,29.81,SE,131,0.0,7.0,64,0.00,,,0.02,VWS V14.01,2013-09-07 00:27:00,
2013-09-06 19:30:00,82.9,69.5,29.81,SE,132,0.0,7.0,64,0.00,,,0.02,VWS V14.01,2013-09-07 00:30:00,
2013-09-06 19:32:00,82.8,69.4,29.81,SE,132,0.0,0.0,64,0.00,,,0.02,VWS V14.01,2013-09-07 00:32:00,
2013-09-06 19:37:00,82.5,69.6,29.81,SE,133,0.0,4.0,65,0.00,,,0.02,VWS V14.01,2013-09-07 00:37:00,
2013-09-06 19:42:00,82.3,69.4,29.81,SE,139,0.0,6.0,65,0.00,,,0.02,VWS V14.01,2013-09-07 00:42:00,
2013-09-06 19:47:00,82.0,69.5,29.81,SE,137,3.0,6.0,66,0.00,,,0.02,VWS V14.01,2013-09-07 00:47:00,
2013-09-06 19:53:00,81.7,69.2,29.81,SE,137,0.0,6.0,66,0.00,,,0.02,VWS V14.01,2013-09-07 00:53:00,
2013-09-06 19:58:00,81.5,69.5,29.81,SE,137,0.0,6.0,67,0.00,,,0.02,VWS V14.01,2013-09-07 00:58:00,
2013-09-06 20:00:00,81.3,69.3,29.81,SE,137,0.0,6.0,67,0.00,,,0.02,VWS V14.01,2013-09-07 01:00:00,
2013-09-06 20:03:00,81.2,69.2,29.81,SE,137,0.0,1.0,67,0.00,,,0.02,VWS V14.01,2013-09-07 01:03:00,
2013-09-06 20:08:00,80.9,69.4,29.81,SE,137,0.0,3.0,68,0.00,,,0.02,VWS V14.01,2013-09-07 01:08:00,
2013-09-06 20:13:00,80.6,69.1,29.81,SE,137,0.0,3.0,68,0.00,,,0.02,VWS V14.01,2013-09-07 01:13:00,
2013-09-06 20:18:00,80.4,68.9,29.82,SE,137,0.0,3.0,68,0.00,,,0.02,VWS V14.01,2013-09-07 01:18:00,
2013-09-06 20:23:00,80.3,68.8,29.81,SE,137,0.0,3.0,68,0.00,,,0.02,VWS V14.01,2013-09-07 01:23:00,
2013-09-06 20:28:00,80.2,68.7,29.82,SE,137,0.0,3.0,68,0.00,,,0.02,VWS V14.01,2013-09-07 01:28:00,
2013-09-06 20:30:00,80.2,69.1,29.82,SE,137,0.0,3.0,69,0.00,,,0.02,VWS V14.01,2013-09-07 01:30:00,
2013-09-06 20:33:00,80.1,69.0,29.82,SE,133,1.0,5.0,69,0.00,,,0.02,VWS V14.01,2013-09-07 01:33:00,
2013-09-06 20:38:00,80.1,68.6,29.81,ESE,108,0.0,6.0,68,0.00,,,0.02,VWS V14.01,2013-09-07 01:38:00,
2013-09-06 20:43:00,80.1,68.6,29.81,ESE,112,3.0,7.0,68,0.00,,,0.02,VWS V14.01,2013-09-07 01:43:00,
2013-09-06 20:48:00,80.0,68.9,29.81,SE,137,0.0,7.0,69,0.00,,,0.02,VWS V14.01,2013-09-07 01:48:00,
2013-09-06 20:53:00,80.0,68.5,29.81,SE,136,0.0,7.0,68,0.00,,,0.02,VWS V14.01,2013-09-07 01:53:00,
2013-09-06 20:58:00,80.0,68.5,29.81,SE,129,0.0,11.0,68,0.00,,,0.02,VWS V14.01,2013-09-07 01:58:00,
2013-09-06 21:00:00,79.9,68.4,29.81,East,88,2.0,11.0,68,0.00,,,0.02,VWS V14.01,2013-09-07 02:00:00,
2013-09-06 21:03:00,79.9,68.4,29.81,ESE,123,7.0,7.0,68,0.00,,,0.02,VWS V14.01,2013-09-07 02:03:00,
2013-09-06 21:08:00,79.9,68.4,29.81,SE,146,5.0,7.0,68,0.00,,,0.02,VWS V14.01,2013-09-07 02:08:00,
2013-09-06 21:13:00,79.8,68.3,29.81,SSE,160,0.0,10.0,68,0.00,,,0.02,VWS V14.01,2013-09-07 02:13:00,
2013-09-06 21:18:00,79.8,68.3,29.81,ESE,119,0.0,10.0,68,0.00,,,0.02,VWS V14.01,2013-09-07 02:18:00,
2013-09-06 21:23:00,79.8,68.3,29.81,ESE,122,6.0,10.0,68,0.00,,,0.02,VWS V14.01,2013-09-07 02:23:00,
2013-09-06 21:28:00,79.7,68.2,29.81,SE,130,4.0,10.0,68,0.00,,,0.02,VWS V14.01,2013-09-07 02:28:00,
2013-09-06 21:30:00,79.7,68.2,29.81,SSE,151,2.0,10.0,68,0.00,,,0.02,VWS V14.01,2013-09-07 02:30:00,
2013-09-06 21:33:00,79.6,68.1,29.81,SE,136,0.0,6.0,68,0.00,,,0.02,VWS V14.01,2013-09-07 02:33:00,
2013-09-06 21:38:00,79.5,68.0,29.82,SSE,153,1.0,7.0,68,0.00,,,0.02,VWS V14.01,2013-09-07 02:38:00,
2013-09-06 21:43:00,79.3,68.3,29.82,ESE,123,1.0,7.0,69,0.00,,,0.02,VWS V14.01,2013-09-07 02:43:00,
2013-09-06 21:48:00,79.1,68.1,29.81,SE,137,1.0,7.0,69,0.00,,,0.02,VWS V14.01,2013-09-07 02:48:00,
2013-09-06 21:53:00,78.9,67.9,29.81,SE,135,2.0,7.0,69,0.00,,,0.02,VWS V14.01,2013-09-07 02:53:00,
2013-09-06 21:58:00,78.7,67.7,29.82,SE,134,5.0,7.0,69,0.00,,,0.02,VWS V14.01,2013-09-07 02:58:00,
2013-09-06 22:00:00,78.6,67.6,29.81,SE,133,0.0,7.0,69,0.00,,,0.02,VWS V14.01,2013-09-07 03:00:00,
2013-09-06 22:04:00,78.4,67.4,29.81,SSE,147,3.0,5.0,69,0.00,,,0.02,VWS V14.01,2013-09-07 03:04:00,
2013-09-06 22:09:00,78.2,67.6,29.81,SSE,147,0.0,5.0,70,0.00,,,0.02,VWS V14.01,2013-09-07 03:09:00,
2013-09-06 22:14:00,78.0,67.4,29.81,SE,132,0.0,7.0,70,0.00,,,0.02,VWS V14.01,2013-09-07 03:14:00,
2013-09-06 22:19:00,77.8,67.2,29.81,SE,141,0.0,7.0,70,0.00,,,0.02,VWS V14.01,2013-09-07 03:19:00,
2013-09-06 22:24:00,77.6,67.1,29.82,SE,129,2.0,7.0,70,0.00,,,0.02,VWS V14.01,2013-09-07 03:24:00,
2013-09-06 22:29:00,77.4,66.9,29.82,SSE,149,0.0,7.0,70,0.00,,,0.02,VWS V14.01,2013-09-07 03:29:00,
2013-09-06 22:30:00,77.3,66.8,29.82,SSE,149,0.0,7.0,70,0.00,,,0.02,VWS V14.01,2013-09-07 03:30:00,
2013-09-06 22:34:00,77.2,66.7,29.81,SE,133,0.0,6.0,70,0.00,,,0.02,VWS V14.01,2013-09-07 03:34:00,
2013-09-06 22:39:00,77.0,66.9,29.81,SE,133,0.0,6.0,71,0.00,,,0.02,VWS V14.01,2013-09-07 03:39:00,
2013-09-06 22:44:00,76.8,66.7,29.81,SE,131,0.0,6.0,71,0.00,,,0.02,VWS V14.01,2013-09-07 03:44:00,
2013-09-06 22:49:00,76.6,66.5,29.81,SE,128,0.0,6.0,71,0.00,,,0.02,VWS V14.01,2013-09-07 03:49:00,
2013-09-06 22:54:00,76.4,66.3,29.81,SE,143,1.0,6.0,71,0.00,,,0.02,VWS V14.01,2013-09-07 03:54:00,
2013-09-06 22:59:00,76.2,66.1,29.81,SE,142,0.0,6.0,71,0.00,,,0.02,VWS V14.01,2013-09-07 03:59:00,
2013-09-06 23:00:00,76.2,66.1,29.81,SE,142,0.0,6.0,71,0.00,,,0.02,VWS V14.01,2013-09-07 04:00:00,
2013-09-06 23:01:00,76.2,66.1,29.81,SE,142,0.0,6.0,71,0.00,,,0.02,VWS V14.01,2013-09-07 04:01:00,
2013-09-06 23:02:00,76.2,66.1,29.81,SE,142,0.0,0.0,71,0.00,,,0.02,VWS V14.01,2013-09-07 04:02:00,
2013-09-06 23:04:00,76.1,66.4,29.81,SE,144,0.0,3.0,72,0.00,,,0.02,VWS V14.01,2013-09-07 04:04:00,
2013-09-06 23:07:00,76.0,66.3,29.81,SE,146,1.0,3.0,72,0.00,,,0.02,VWS V14.01,2013-09-07 04:07:00,
2013-09-06 23:12:00,75.8,66.1,29.81,SSE,148,0.0,7.0,72,0.00,,,0.02,VWS V14.01,2013-09-07 04:12:00,
2013-09-06 23:17:00,75.7,66.0,29.81,SSE,148,0.0,7.0,72,0.00,,,0.02,VWS V14.01,2013-09-07 04:17:00,
2013-09-06 23:22:00,75.5,65.8,29.81,SE,141,0.0,7.0,72,0.00,,,0.02,VWS V14.01,2013-09-07 04:22:00,
2013-09-06 23:27:00,75.4,66.2,29.82,SE,141,0.0,7.0,73,0.00,,,0.02,VWS V14.01,2013-09-07 04:27:00,
2013-09-06 23:30:00,75.3,66.4,29.82,SE,141,0.0,7.0,74,0.00,,,0.02,VWS V14.01,2013-09-07 04:30:00,
2013-09-06 23:32:00,75.3,66.4,29.82,SE,141,0.0,0.0,74,0.00,,,0.02,VWS V14.01,2013-09-07 04:32:00,
2013-09-06 23:37:00,75.1,66.2,29.82,SE,141,0.0,1.0,74,0.00,,,0.02,VWS V14.01,2013-09-07 04:37:00,
2013-09-06 23:42:00,74.9,65.7,29.82,SE,141,0.0,3.0,73,0.00,,,0.02,VWS V14.01,2013-09-07 04:42:00,
2013-09-06 23:47:00,74.8,66.0,29.82,SE,139,0.0,4.0,74,0.00,,,0.02,VWS V14.01,2013-09-07 04:47:00,
2013-09-06 23:52:00,74.7,65.9,29.82,SE,138,0.0,5.0,74,0.00,,,0.02,VWS V14.01,2013-09-07 04:52:00,
2013-09-06 23:57:00,74.6,65.8,29.82,SE,139,0.0,5.0,74,0.00,,,0.02,VWS V14.01,2013-09-07 04:57:00,